Location: Kuffner-Sternwarte
(48.2130°N, 16.2960°E)
Time: 02:39:02
(UTC+02:00)

Tiangong - Pass Details

Date: 20 September 2024
Orbit: 375 x 379 km, 41.5° (Epoch: 03 October)

Event Time Altitude Azimuth Distance (km) Brightness Sun altitude
Rises 20:08:26 0° 231° (SW) 2,229 2.3 -12.7°
Reaches altitude 10° 20:10:54 10° 211° (SSW) 1,383 0.9 -13.1°
Maximum altitude 20:13:06 18° 166° (SSE) 1,016 -0.3 -13.5°
Enters shadow 20:13:32 17° 154° (SSE) 1,033 -0.4 -13.5°
